Home   Weather   Fairfield   Past weeks
Flag for USA

Past Weather in Fairfield, Wisconsin, USA — Yesterday and Last 2 Weeks

Now
37 °F

Overcast.


Feels Like: 30 °F
Forecast: 41 / 26 °F
Wind: 12 mph from Southwest

Location: Janesville / Rock County

Current Time: Dec 7, 2019 at 1:15:46 pm

Latest Report: Dec 7, 2019 at 11:45 am


Visibility: 10 mi

Pressure: 30.29 "Hg

Humidity: 70%

Dew Point: 28 °F

Location of FairfieldLocation

Past Weather in Fairfield — Graph

°F

Fairfield Temperature Yesterday

Maximum temperature yesterday: 39 °F (at 12:45 pm)
Minimum temperature yesterday: 23 °F (at 11:35 pm)
Average temperature yesterday: 33 °F

High & Low Weather Summary for the Past Weeks

 TemperatureHumidityPressure
High52 °F (Nov 25, 1:45 pm)100% (Nov 22, 10:55 pm)30.51 "Hg (Nov 22, 10:55 pm)
Low23 °F (Nov 23, 12:35 am)48% (Dec 6, 12:45 pm)29.18 "Hg (Nov 27, 4:35 am)
Average34 °F88%29.88 "Hg
* Reported Nov 22 11:45 am — Dec 7 11:45 am, Fairfield. Weather by CustomWeather, © 2019

Note: Actual official high and low records may vary slightly from our data, if they occured in-between our weather recording intervals... More about our weather records

Fairfield Weather History for the Previous 24 Hours

Scroll right to see more
 ConditionsComfort  
Time TempWeatherWind HumidityBarometerVisibility
11:45 am
Sat, Dec 7
37 °FOvercast.12 mph70%30.29 "Hg10 mi
10:45 am36 °FOvercast.9 mph70%30.31 "Hg10 mi
9:45 am34 °FOvercast.10 mph75%30.32 "Hg10 mi
8:45 am32 °FOvercast.7 mph80%30.33 "Hg10 mi
7:45 am30 °FOvercast.7 mph80%30.32 "Hg10 mi
6:45 am30 °FOvercast.8 mph80%30.32 "Hg10 mi
5:45 am28 °FOvercast.6 mph86%30.32 "Hg10 mi
4:55 am30 °FOvercast.6 mph80%30.31 "Hg10 mi
4:35 am28 °FOvercast.6 mph86%30.32 "Hg10 mi
4:15 am28 °FOvercast.3 mph86%30.32 "Hg10 mi
3:55 am28 °FOvercast.3 mph86%30.33 "Hg10 mi
3:35 am28 °FOvercast.3 mph86%30.33 "Hg10 mi
2:55 am25 °FOvercast.3 mph100%30.34 "Hg10 mi
2:35 am23 °FPassing clouds.5 mph100%30.34 "Hg10 mi
2:15 am23 °FPassing clouds.3 mph93%30.34 "Hg10 mi
1:55 am23 °FPassing clouds.No wind93%30.35 "Hg10 mi
1:35 am25 °FPassing clouds.No wind93%30.35 "Hg10 mi
1:15 am23 °FClear.No wind93%30.35 "Hg10 mi
12:55 am27 °FClear.3 mph86%30.34 "Hg10 mi
12:35 am23 °FClear.6 mph86%30.34 "Hg10 mi
12:15 am28 °FClear.3 mph80%30.31 "Hg10 mi
11:55 pm
Fri, Dec 6
27 °FClear.7 mph86%30.30 "Hg10 mi
11:35 pm23 °FClear.8 mph93%30.32 "Hg10 mi
11:15 pm25 °FClear.No wind86%30.34 "Hg10 mi
10:55 pm25 °FClear.No wind86%30.34 "Hg10 mi
10:35 pm27 °FClear.No wind100%30.35 "Hg10 mi
10:15 pm27 °FClear.No wind93%30.36 "Hg10 mi
9:55 pm27 °FClear.No wind100%30.36 "Hg10 mi
9:35 pm27 °FClear.No wind80%30.36 "Hg10 mi
9:15 pm27 °FClear.No wind86%30.36 "Hg10 mi
8:55 pm27 °FClear.No wind86%30.36 "Hg10 mi
7:45 pm28 °FClear.No wind74%30.36 "Hg10 mi
6:45 pm30 °FClear.No wind69%30.35 "Hg10 mi
5:45 pm34 °FClear.No wind56%30.34 "Hg10 mi
4:45 pm36 °FClear.3 mph52%30.33 "Hg10 mi
3:45 pm37 °FSunny.3 mph48%30.31 "Hg10 mi
2:45 pm39 °FSunny.3 mph52%30.30 "Hg10 mi
1:45 pm39 °FScattered clouds.5 mph52%30.28 "Hg10 mi
Weather by CustomWeather, © 2019

See weather overview

Advertising